SCP
0 0 1 1 1 0 0 0 0 0 0 0 0 0 0 1 2 2 1 2 2 2 2 2 2 2 3 3 3 2 2 2 2 1 1 1 1 1 1 1 1 1 1 1 1 1 1 1 1
0 0 1 1 1 0 0 0 0 0 0 0 0 0 1 1 2 2 1 2 2 2 2 2 2 2 3 3 3 2 2 2 2 2 1 1 1 1 1 1 1 1 1 1 1 1 1 1 1
0 0 1 1 0 0 0 0 0 0 0 0 0 0 1 1 2 2 2 2 2 2 2 2 2 3 3 3 3 2 2 2 2 2 2 1 1 1 1 1 1 1 1 1 1 1 1 1 1
0 0 1 0 0 0 0 0 0 0 0 0 0 1 1 1 2 2 2 2 2 2 2 3 3 3 3 4 3 3 2 2 2 2 2 2 2 2 2 1 1 1 1 1 1 1 1 1 1
0 0 0 0 0 0 0 0 0 0 0 0 0 1 1 1 1 2 3 3 3 2 2 3 4 4 4 4 4 3 3 3 3 3 2 2 2 2 2 2 1 1 1 1 1 1 1 1 1
0 0 0 0 0 0 0 0 0 0 0 0 0 1 1 1 1 2 2 2 2 2 3 4 4 4 4 4 3 3 3 3 3 3 3 3 3 2 2 2 2 2 2 1 1 1 1 1 1
0 0 0 0 0 0 0 0 0 0 0 0 1 1 1 1 1 1 2 2 2 2 3 4 3 3 3 3 3 3 2 2 3 3 3 3 3 2 2 2 2 2 2 2 2 1 1 1 1
0 0 0 0 0 0 0 0 0 0 0 0 1 1 1 1 1 1 1 2 2 3 4 4 3 3 3 3 3 3 2 2 3 3 3 3 3 3 2 2 2 2 2 2 2 2 1 1 1
0 0 0 0 0 0 0 0 0 0 0 0 0 1 1 1 1 1 1 2 3 4 4 4 3 3 3 3 3 2 2 2 2 3 3 3 4 3 2 2 2 2 2 2 2 2 1 1 1
0 0 0 0 0 0 0 0 0 0 0 0 0 1 1 1 1 1 1 1 2 3 3 3 3 3 3 3 3 2 2 2 2 3 3 3 3 3 2 2 2 2 1 2 2 2 2 1 1
0 0 0 0 0 0 0 0 0 0 0 0 1 1 1 1 1 1 1 1 1 2 2 2 3 3 4 4 3 3 2 2 3 3 3 2 2 2 2 1 1 1 1 1 2 2 2 2 1
0 0 0 0 0 0 0 0 0 0 0 0 1 2 1 1 1 1 1 1 1 2 2 2 2 3 4 4 4 3 3 3 3 3 2 2 2 1 1 1 1 1 1 1 2 2 2 2 2
0 0 0 0 0 0 0 0 0 0 0 1 1 1 1 1 1 2 2 1 1 2 2 3 2 2 3 4 5 4 3 4 3 3 2 2 1 1 1 1 1 0 0 1 2 2 2 2 2
0 0 0 0 0 0 0 0 0 0 0 1 1 1 1 1 2 2 2 1 1 2 3 3 3 3 3 4 5 4 4 4 4 3 2 1 1 1 1 1 0 0 0 1 2 3 3 2 2
0 0 0 0 0 0 0 0 0 0 0 1 1 1 1 2 2 2 1 1 1 1 2 3 3 3 3 4 4 4 5 4 4 3 2 1 1 1 1 0 0 0 0 1 2 3 3 2 2
0 0 0 0 0 0 0 0 0 0 0 1 1 2 2 2 2 2 1 1 1 1 2 2 3 3 3 3 5 5 5 4 3 3 2 1 1 1 1 0 0 0 0 0 1 2 3 3 2
0 0 0 0 0 0 0 0 0 0 0 1 1 2 2 2 2 2 1 0 1 1 1 2 2 3 3 3 5 7 5 3 3 2 2 1 1 1 0 0 0 0 0 0 1 2 3 3 2
0 0 0 0 0 0 0 0 0 0 0 1 1 2 2 2 2 1 1 1 1 1 1 1 2 2 3 4 5 5 4 2 2 2 2 1 1 1 0 0 0 0 0 0 0 1 2 2 2
0 0 0 0 0 0 0 0 0 0 0 1 1 2 2 2 2 1 1 1 1 0 0 1 1 2 3 4 4 3 3 2 2 2 2 2 1 1 1 0 0 0 0 0 0 1 1 1 1
0 0 0 0 0 0 0 0 0 0 0 0 1 1 2 2 2 1 1 1 1 0 0 0 1 1 2 3 4 4 4 3 3 3 2 2 2 1 1 1 0 0 0 0 0 0 1 0 0
0 0 0 0 0 0 0 0 0 0 0 0 0 1 1 2 2 1 1 1 1 0 0 0 0 1 2 3 3 3 4 4 4 3 3 3 2 2 1 1 1 0 0 0 0 0 0 0 0
0 0 0 0 0 0 0 0 0 0 0 0 0 1 1 2 2 2 1 1 0 0 0 0 0 0 1 3 3 3 3 4 4 3 3 3 3 2 2 2 1 0 0 0 0 0 0 0 0
0 0 0 0 0 0 0 0 0 0 0 0 0 0 1 2 2 2 1 1 0 0 0 0 0 0 1 2 3 3 2 2 2 3 3 3 3 3 3 2 2 1 0 0 0 0 0 0 0
0 0 0 0 0 0 0 0 0 0 0 0 0 0 1 2 2 2 1 0 0 0 0 0 0 0 1 2 3 3 2 1 1 1 2 2 3 3 3 3 2 2 1 0 0 0 0 0 0
0 0 0 0 0 0 0 0 0 0 0 0 0 0 1 1 1 1 1 0 0 0 0 0 0 0 1 2 3 3 2 1 1 1 1 1 2 2 3 3 3 2 1 1 0 0 0 0 0
0 0 0 0 0 0 0 0 0 0 0 0 0 0 1 1 0 0 0 0 0 0 0 0 0 0 1 2 3 2 2 1 1 0 0 0 0 1 2 3 3 3 2 1 0 0 0 0 0
0 0 0 0 0 0 0 0 0 0 0 0 0 0 0 0 0 0 0 0 0 0 0 0 0 1 1 2 2 2 1 1 1 0 0 0 0 0 1 1 2 2 2 1 1 0 0 0 0
0 0 0 0 0 0 0 0 0 0 0 0 0 0 0 0 0 0 0 0 0 0 0 0 0 1 1 1 1 1 1 1 1 0 0 0 0 0 0 0 0 1 1 1 1 0 0 0 0
0 0 0 0 0 0 0 0 0 0 0 0 0 0 0 0 0 0 0 0 0 0 0 1 1 0 0 0 0 0 1 1 1 0 0 0 0 0 0 0 0 0 0 1 1 0 0 0 0
0 0 0 0 0 0 0 0 0 0 0 0 0 0 0 0 0 0 0 0 0 0 0 1 1 0 0 0 0 0 1 1 0 0 0 0 0 0 0 0 0 0 0 0 0 0 0 0 0
Wind_Speed
11 9 5 2 2 4 5 4 1 3 3 5 5 4 5 5 5 6 3 4 6 7 8 7 8 8 8 8 8 8 8 8 8 8 8 8 8 9 8 8 9 9 10 10 10 10 11 11 11
9 7 3 2 3 4 4 4 2 5 4 4 3 3 3 4 6 7 4 5 5 7 7 7 8 8 8 8 8 8 8 8 7 8 7 8 8 8 8 8 8 9 9 9 10 10 10 11 10
9 6 3 3 4 4 2 2 5 6 4 1 1 3 4 4 5 5 4 5 5 6 7 7 8 8 8 8 7 8 8 8 7 7 7 7 7 7 7 7 8 8 8 8 9 10 10 9 9
4 3 3 4 6 4 2 3 4 4 2 0 1 3 3 5 4 5 5 5 5 6 6 7 8 8 7 7 7 7 7 7 7 7 6 7 6 6 6 7 7 7 7 7 8 9 9 9 8
3 3 4 5 6 4 1 3 2 1 2 1 0 2 3 3 7 7 5 5 5 6 6 6 8 8 7 7 6 7 6 6 7 6 6 6 6 6 6 6 6 7 7 6 7 8 8 8 7
3 3 4 6 6 4 2 1 0 1 0 1 0 1 3 4 6 5 5 5 6 6 6 6 7 7 7 7 6 6 5 6 6 6 6 6 6 6 6 6 6 6 6 6 7 7 7 7 6
3 3 5 5 4 3 2 2 0 2 1 0 2 2 3 3 5 5 4 5 6 6 6 5 4 5 6 6 5 5 5 6 5 5 5 5 5 6 5 6 6 6 6 6 6 6 6 6 5
3 3 5 5 5 3 2 2 2 3 1 2 3 1 3 3 4 4 5 4 5 5 5 4 3 4 3 3 4 4 5 5 5 5 5 5 4 4 5 5 5 5 5 6 6 6 5 5 4
3 3 4 4 3 1 3 1 1 2 2 2 2 3 4 6 4 4 4 3 3 4 4 4 3 3 2 2 3 3 4 4 5 4 5 4 2 2 3 4 6 6 6 5 5 5 5 4 3
2 3 3 3 3 2 1 1 1 1 1 0 2 3 5 5 4 3 3 4 3 3 3 3 3 3 2 2 2 1 2 2 2 2 3 2 2 2 4 5 6 5 5 4 4 4 4 2 1
2 3 3 2 4 4 1 2 1 3 3 3 3 4 5 4 3 3 3 3 3 3 3 3 2 3 2 1 1 1 1 1 1 2 2 2 2 2 3 2 3 3 3 2 2 2 1 1 1
3 4 4 2 2 3 3 2 2 4 3 2 2 3 3 3 3 3 3 2 3 3 3 3 3 2 2 2 1 1 1 1 1 1 2 2 2 2 2 1 1 1 1 1 1 1 1 1 1
6 4 3 2 1 3 4 5 4 5 2 0 1 3 3 3 3 2 2 2 3 3 2 3 3 2 2 2 1 2 1 1 1 1 1 2 2 2 1 1 1 1 1 1 1 1 1 1 0
2 3 4 4 3 3 5 6 4 5 3 2 3 4 4 3 2 2 3 2 3 3 3 3 3 2 2 1 1 1 1 1 1 1 2 1 1 1 1 1 1 1 1 1 1 1 1 0 0
2 4 6 7 6 4 3 6 7 6 4 3 4 3 3 3 3 2 3 3 3 3 2 2 3 3 2 2 1 1 1 2 1 1 2 2 1 1 1 1 1 1 0 1 1 1 1 0 0
5 5 6 5 6 4 4 7 4 4 4 4 4 4 4 3 3 2 2 3 3 2 2 2 2 3 2 2 1 1 1 1 1 1 2 2 2 2 1 1 1 0 0 0 1 1 0 0 0
6 6 7 4 5 4 5 6 2 3 4 4 4 4 4 3 3 3 3 3 3 3 2 2 2 2 2 2 1 1 1 1 1 1 2 2 2 2 1 1 0 0 0 0 0 0 0 0 0
4 5 6 5 4 4 6 7 4 4 5 5 4 4 4 3 3 3 3 3 3 3 3 2 2 2 2 2 2 1 1 0 0 1 1 2 2 2 1 1 1 1 1 0 0 0 0 0 0
6 6 8 5 1 3 7 9 8 5 5 5 5 5 4 4 3 4 3 3 3 3 2 2 2 2 2 2 2 2 2 1 0 0 1 2 2 2 1 1 1 1 1 1 0 0 0 0 0
7 8 7 5 2 3 6 10 8 7 7 6 6 5 5 4 4 4 4 3 3 3 2 2 2 2 2 2 2 2 1 1 1 1 1 1 1 2 1 2 2 1 1 1 0 0 1 0 1
8 7 6 5 5 5 5 8 7 5 4 5 4 4 4 4 4 4 3 3 3 3 3 2 2 2 2 2 2 1 1 0 1 1 1 1 1 2 1 1 1 1 1 1 1 1 2 1 1
6 4 4 4 3 4 4 6 6 6 5 6 5 4 4 3 3 4 3 3 2 2 2 2 2 2 2 2 2 2 2 2 2 2 1 2 1 1 1 1 1 1 1 2 2 1 1 2 1
2 2 3 5 4 5 5 5 7 5 6 6 5 4 3 2 3 3 3 3 2 2 2 2 2 2 2 2 3 3 2 1 1 1 2 2 1 1 1 1 1 1 1 1 1 1 1 1 2
1 2 3 3 2 6 8 7 6 5 6 5 4 3 3 2 2 2 2 2 2 1 2 2 2 1 1 2 2 3 2 2 2 1 1 1 1 1 1 1 1 1 1 1 1 1 1 1 1
3 1 1 2 4 7 4 5 6 1 3 4 4 3 3 3 3 2 2 2 2 1 1 1 2 1 1 1 1 2 2 3 3 2 2 1 1 1 2 1 1 1 1 1 1 1 1 1 1
5 4 4 4 4 3 2 6 4 2 3 3 3 3 3 3 2 2 2 2 2 1 1 1 1 1 1 1 1 1 2 2 1 1 2 1 1 1 2 2 2 1 1 1 1 1 1 1 1
3 4 1 1 3 3 6 4 2 2 3 3 2 3 3 2 2 1 2 2 1 1 1 2 2 1 1 1 1 1 1 1 1 1 1 1 1 1 2 2 2 2 2 1 1 1 1 1 2
3 2 2 3 3 5 5 5 4 4 3 2 2 2 1 1 1 1 2 1 1 1 1 1 2 2 1 1 1 1 1 1 1 1 1 1 1 1 2 2 1 1 2 2 2 1 2 2 2
4 3 3 3 3 3 4 4 1 5 6 4 3 2 2 1 1 1 1 1 1 1 1 2 2 2 1 2 1 0 0 0 1 1 1 1 1 1 2 2 2 1 2 2 2 2 2 3 3
4 5 5 4 5 4 3 6 0 3 3 3 2 2 1 1 1 1 2 1 1 1 2 2 2 1 1 2 1 1 1 1 1 1 0 1 1 1 1 1 1 2 2 2 2 3 3 3 3
Wind_Direction
302 275 257 263 245 231 237 247 257 80 52 37 24 14 34 25 27 95 125 76 85 102 107 109 100 100 98 98 98 96 94 92 90 88 84 85 84 83 84 84 84 84 84 82 82 83 84 83 81
294 282 265 243 243 234 231 217 104 64 64 53 29 356 57 68 70 96 100 78 89 99 105 107 102 100 98 100 101 101 98 96 95 93 91 90 89 87 88 88 85 85 84 82 83 83 83 83 80
277 267 253 238 238 246 257 73 86 86 78 71 79 19 29 54 70 84 88 90 91 94 99 100 106 106 103 101 103 101 98 97 96 95 94 93 92 90 89 90 87 85 85 83 84 84 81 82 81
274 244 240 246 249 265 307 53 83 100 110 61 105 90 64 43 63 87 96 94 97 97 96 100 105 108 106 101 102 100 99 98 97 95 94 94 92 93 91 91 91 90 88 87 87 86 84 80 80
246 246 232 238 245 262 0 43 59 142 160 173 95 93 79 57 78 86 91 89 93 93 98 99 95 101 98 98 94 98 98 100 101 96 94 91 91 92 88 91 94 95 94 93 93 89 86 81 77
258 248 241 232 229 223 155 86 335 281 178 94 27 104 101 92 87 87 89 87 88 93 98 104 93 91 92 93 94 91 96 97 99 98 94 90 86 87 90 91 94 94 96 97 97 94 89 84 79
273 261 256 256 251 230 142 95 274 263 240 222 345 86 122 108 99 94 89 88 90 94 100 108 107 99 90 86 91 96 98 97 95 95 94 88 87 87 90 93 88 93 99 98 96 95 92 86 80
305 286 257 250 250 248 92 76 351 335 0 19 9 69 131 125 107 108 96 85 89 97 102 107 103 98 96 96 86 91 104 103 101 97 90 86 89 88 91 91 88 92 98 103 102 98 93 87 78
292 264 252 258 264 293 93 90 356 353 48 44 35 35 99 124 121 115 112 105 100 94 96 104 102 94 92 108 104 95 94 100 106 101 97 98 94 89 92 97 96 96 97 100 106 107 100 91 81
234 245 260 315 344 350 57 328 274 247 192 165 91 84 111 124 132 143 144 136 124 112 100 97 105 102 85 81 101 104 99 105 111 109 114 107 90 83 82 91 98 96 96 96 101 107 108 100 115
238 243 278 321 358 353 337 287 291 260 245 222 176 144 136 145 156 163 160 137 132 120 104 94 95 101 96 75 88 86 78 82 82 94 97 90 84 85 80 85 84 90 92 86 100 122 135 124 119
258 274 288 306 357 327 292 269 268 268 273 7 62 134 149 167 176 173 165 142 123 117 106 99 91 84 90 88 87 95 85 72 58 80 95 91 91 88 92 90 84 78 79 82 72 85 84 90 108
243 260 277 290 301 282 283 266 254 257 269 287 143 158 176 189 194 166 140 129 123 123 124 120 116 106 96 95 103 99 100 103 90 67 81 87 98 101 95 91 84 67 73 102 87 71 63 64 105
280 275 269 263 251 254 259 262 250 246 221 204 189 186 186 188 183 163 146 152 146 140 141 133 128 129 117 113 116 115 125 126 132 121 100 82 102 109 108 103 93 69 63 93 104 87 84 64 57
261 264 257 237 229 223 253 257 237 229 197 206 203 199 196 189 181 176 165 159 155 150 141 139 139 132 130 129 128 116 130 142 155 138 123 111 98 106 107 113 104 92 80 83 78 59 70 70 42
225 235 242 214 206 193 206 255 238 193 190 211 208 201 199 195 188 169 157 151 151 143 137 140 132 131 138 138 134 121 130 142 154 133 125 122 112 110 106 107 109 114 97 91 98 97 64 56 26
213 233 237 221 202 200 212 256 220 182 198 220 217 206 198 188 181 168 154 146 145 149 147 147 135 139 143 144 138 132 128 147 152 125 126 144 144 127 125 130 115 129 96 55 56 93 136 131 301
232 246 255 241 203 225 236 254 247 217 218 225 222 213 201 189 187 158 145 144 144 148 152 155 140 141 142 141 138 134 135 182 130 128 143 147 147 136 134 138 146 148 128 93 108 176 228 180 234
282 274 271 275 247 240 249 258 257 235 224 230 224 210 196 193 170 152 154 146 140 140 143 158 156 157 154 163 167 177 196 184 161 133 136 144 144 140 144 153 166 157 154 183 195 229 187 312 75
269 266 273 288 274 267 266 266 258 239 226 223 220 205 191 185 167 159 163 159 156 158 166 179 176 171 170 177 182 187 186 177 163 156 135 145 147 148 169 168 175 178 174 180 204 214 168 298 66
255 256 264 278 304 270 272 273 243 235 226 219 217 196 187 179 174 165 162 158 157 166 181 194 192 181 172 161 150 147 140 137 142 171 156 148 155 157 161 179 182 184 178 191 207 212 177 181 264
256 274 279 275 278 265 216 273 249 220 222 219 209 194 180 170 167 163 161 161 170 186 183 189 188 183 166 158 163 166 181 193 197 184 168 161 156 146 138 157 172 187 185 190 213 221 193 160 190
245 330 281 265 258 275 239 247 261 207 223 223 203 180 149 147 140 153 156 154 149 164 170 178 173 176 168 159 172 178 189 193 156 144 143 142 139 139 134 142 154 180 199 192 186 199 189 179 180
221 280 264 252 246 254 224 218 260 210 208 198 185 160 137 127 117 118 120 114 108 109 134 147 152 159 153 153 175 180 178 178 170 165 160 156 150 140 141 147 147 166 167 184 186 190 185 197 185
201 173 259 243 223 241 210 215 245 198 115 152 170 158 141 133 123 120 110 107 121 117 134 142 151 159 156 152 168 182 182 183 184 183 178 177 170 161 173 163 170 179 173 184 182 178 195 192 191
209 188 194 229 242 271 233 230 236 128 104 102 112 125 122 114 115 129 138 136 141 141 149 153 168 169 159 158 176 176 174 177 176 180 182 190 182 176 165 170 175 183 179 186 173 178 191 179 201
196 210 220 261 271 265 243 234 222 107 92 85 86 109 120 123 120 130 125 125 127 144 172 168 168 168 162 153 141 148 152 167 170 166 143 167 172 167 156 165 169 182 185 188 189 189 203 194 203
251 201 147 193 229 255 251 229 219 176 183 166 155 151 148 131 133 133 120 119 126 148 154 128 130 129 112 94 73 103 146 159 148 133 143 163 166 164 165 174 178 191 199 204 203 203 214 212 222
191 198 199 216 231 232 263 257 207 173 174 173 186 191 175 172 183 151 120 122 129 121 130 114 110 104 96 79 43 102 107 117 120 130 154 172 165 172 181 180 188 202 214 218 214 216 217 220 230
220 207 186 196 233 232 251 265 21 114 126 138 162 171 151 151 165 130 126 133 132 126 125 115 106 101 101 95 65 90 80 54 70 94 143 187 181 185 198 187 199 215 226 225 222 228 227 223 229